Weather History for Lahr, Germany

Change the Weather History Date:

Tuesday, July 30, 2013

  Actual Average (LFST) Record (LFST)
Temperature  
Mean Temperature 70 °F -  
Max Temperature 79 °F 78 °F 89 °F (2002)
Min Temperature 62 °F 57 °F 50 °F (2007)
Cooling Degree Days 6    
Growing Degree Days 20 (Base 50)    
Moisture  
Dew Point 58 °F    
Average Humidity 61    
Maximum Humidity 88    
Minimum Humidity 33    
Precipitation  
Precipitation 0.00 in - - ()
Sea Level Pressure  
Sea Level Pressure 30.16 in    
Wind  
Wind Speed 9 mph ()    
Max Wind Speed 18 mph    
Max Gust Speed -    
Visibility 6.2 miles    
Events Rain    
Averages and records for this station are not official NWS values.
T = Trace of Precipitation, MM = Missing Value Source: Averaged Metar Reports

Daily Weather History Graph

Daily Weather History Graph

Search for Another Location

Airport:

Trip Planner

Search our weather history database for the weather conditions in past years. The results will help you decide how hot, cold, wet, or windy it might be!

Date:

Astronomy

Jul. 30, 2013 Rise Set
Actual Time 6:01 AM CEST 9:08 PM CEST
Civil Twilight 5:23 AM CEST 9:45 PM CEST
Nautical Twilight 4:35 AM CEST 10:33 PM CEST
Astronomical Twilight 3:34 AM CEST 11:33 PM CEST
Moon 12:15 AM CEST (7/30) 3:09 PM CEST (7/30)
Length of Visible Light 16h 21m
Length of Day
15h 07m
Last Quarter, 43% of the Moon is Illuminated
Jul 30
Last Quarter
Aug 6
New
Aug 14
First Quarter
Aug 21
Full
Aug 28
Last Quarter

Hourly Weather History & Observations

Time (CEST) Temp. Dew Point Humidity Pressure Visibility Wind Dir Wind Speed Gust Speed Precip Events Conditions
12:00 AM 65 °F 60 °F 79% 30.15 in 22 mi South 8.9 mph - -  
1:00 AM 65 °F 60 °F 79% 30.16 in 22 mi South 6.7 mph - -  
2:00 AM 65 °F 60 °F 78% 30.17 in 25 mi South 8.9 mph - -   Overcast
3:00 AM 65 °F 59 °F 76% 30.17 in 28 mi South 8.9 mph - -  
4:00 AM 63 °F 59 °F 83% 30.18 in 22 mi SSW 4.5 mph - -  
5:00 AM 64 °F 59 °F 79% 30.17 in 25 mi South 8.9 mph - - Rain Rain
6:00 AM 63 °F 59 °F 81% 30.18 in 31 mi South 8.9 mph - -   Scattered Clouds
7:00 AM 63 °F 59 °F 83% 30.19 in 31 mi South 6.7 mph - -   Scattered Clouds
7:50 AM 64.4 °F 60.8 °F 88% 30.18 in 6.2 mi South 8.1 mph - N/A   Partly Cloudy
8:00 AM 65 °F 60 °F 78% 30.19 in 31 mi South 6.7 mph - -   Partly Cloudy
9:00 AM 67 °F 61 °F 75% 30.19 in 31 mi SSW 8.9 mph - -   Scattered Clouds
9:50 AM 69.8 °F 60.8 °F 73% 30.18 in 6.2 mi SSW 10.4 mph - N/A   Partly Cloudy
10:00 AM 69 °F 60 °F 67% 30.18 in 31 mi SW 11.2 mph - -   Scattered Clouds
10:20 AM 69.8 °F 60.8 °F 73% 30.18 in 6.2 mi SW 12.7 mph - N/A   Scattered Clouds
10:50 AM 71.6 °F 60.8 °F 69% 30.18 in 6.2 mi SW 10.4 mph - N/A   Scattered Clouds
11:00 AM 71 °F 62 °F 65% 30.18 in 28 mi SW 8.9 mph - -   Mostly Cloudy
11:20 AM 69.8 °F 60.8 °F 73% 30.18 in 6.2 mi WSW 9.2 mph - N/A   Scattered Clouds
11:50 AM 73.4 °F 59.0 °F 61% 30.18 in 6.2 mi SW 10.4 mph - N/A   Partly Cloudy
12:00 PM 72 °F 60 °F 56% 30.16 in 37 mi SSW 8.9 mph - -   Mostly Cloudy
12:20 PM 71.6 °F 59.0 °F 64% 30.18 in 6.2 mi SW 13.8 mph - N/A   Scattered Clouds
12:50 PM 71.6 °F 57.2 °F 60% 30.15 in 6.2 mi South 13.8 mph - N/A   Scattered Clouds
1:00 PM 72 °F 57 °F 50% 30.16 in 44 mi SSW 13.4 mph - -   Mostly Cloudy
1:20 PM 73.4 °F 57.2 °F 57% 30.15 in 6.2 mi SW 18.4 mph - N/A   Scattered Clouds
1:50 PM 73.4 °F 55.4 °F 53% 30.15 in 6.2 mi SW 13.8 mph - N/A   Scattered Clouds
2:00 PM 74 °F 57 °F 45% 30.15 in 44 mi SW 11.2 mph - -   Partly Cloudy
2:20 PM 73.4 °F 57.2 °F 57% 30.15 in 6.2 mi WSW 9.2 mph - N/A Rain Light Rain Showers
2:50 PM 75.2 °F 57.2 °F 53% 30.15 in 6.2 mi WSW 10.4 mph - N/A   Scattered Clouds
3:00 PM 75 °F 56 °F 41% 30.14 in 44 mi WSW 11.2 mph - - Rain Light Rain Showers
3:20 PM 77.0 °F 57.2 °F 50% 30.15 in - WSW 9.2 mph - N/A   Clear
3:50 PM 75.2 °F 55.4 °F 50% 30.15 in - SSW 12.7 mph - N/A   Clear
4:00 PM 76 °F 57 °F 41% 30.13 in 44 mi SSW 11.2 mph - -   Mostly Cloudy
5:00 PM 78 °F 55 °F 34% 30.13 in 47 mi WSW 15.7 mph - -   Partly Cloudy
6:00 PM 76 °F 55 °F 38% 30.12 in 47 mi WSW 11.2 mph - -   Scattered Clouds
7:00 PM 78 °F 54 °F 33% 30.11 in 47 mi WSW 8.9 mph - -   Scattered Clouds
8:00 PM 75 °F 56 °F 41% 30.12 in 47 mi SW 8.9 mph - -   Partly Cloudy
9:00 PM 73 °F 56 °F 46% 30.12 in 47 mi SW 6.7 mph - -   Partly Cloudy
10:00 PM 73 °F 58 °F 49% 30.14 in 44 mi SW 11.2 mph - -   Overcast
11:00 PM 72 °F 59 °F 54% 30.14 in 44 mi SSW 8.9 mph - -   Overcast